TimeAKDT,TemperatureF,Dew PointF,Humidity,Sea Level PressureIn,VisibilityMPH,Wind Direction,Wind SpeedMPH,Gust SpeedMPH,PrecipitationIn,Events,Conditions,WindDirDegrees,DateUTC
12:33 AM,48.0,44.1,86,29.85,2.5,ESE,9.2,-,0.05,Rain,Rain,110,2013-10-29 08:33:00
12:43 AM,48.0,44.1,86,29.85,3.0,ESE,9.2,-,0.06,Rain,Rain,110,2013-10-29 08:43:00
12:53 AM,48.9,45.0,86,29.85,3.0,ESE,8.1,-,0.08,Rain,Rain,120,2013-10-29 08:53:00
1:53 AM,48.9,46.0,90,29.84,3.0,ESE,4.6,-,0.06,Rain,Rain,120,2013-10-29 09:53:00
2:17 AM,48.9,46.0,90,29.83,2.5,ESE,5.8,-,N/A,Rain,Rain,120,2013-10-29 10:17:00
2:48 AM,50.0,46.4,87,29.83,3.0,ESE,8.1,-,N/A,Rain,Rain,110,2013-10-29 10:48:00
2:53 AM,50.0,46.9,89,29.83,4.0,ESE,8.1,-,N/A,Rain,Rain,110,2013-10-29 10:53:00
3:08 AM,50.0,46.9,89,29.83,2.5,ESE,5.8,-,0.00,Rain,Rain,120,2013-10-29 11:08:00
3:31 AM,50.0,46.9,89,29.84,1.8,SE,8.1,-,0.02,Rain,Rain,140,2013-10-29 11:31:00
3:39 AM,50.0,46.9,89,29.84,2.5,SE,6.9,-,0.02,Rain,Rain,130,2013-10-29 11:39:00
3:49 AM,50.0,46.4,87,29.84,4.0,ESE,4.6,-,0.02,Rain,Rain,110,2013-10-29 11:49:00
3:53 AM,50.0,46.9,89,29.84,5.0,East,3.5,-,0.02,,Overcast,90,2013-10-29 11:53:00
4:30 AM,50.0,46.9,89,29.85,10.0,NW,13.8,-,N/A,,Overcast,310,2013-10-29 12:30:00
4:40 AM,50.0,46.9,89,29.85,10.0,NW,11.5,-,N/A,,Overcast,310,2013-10-29 12:40:00
4:53 AM,50.0,46.9,89,29.86,10.0,NW,11.5,-,N/A,,Overcast,310,2013-10-29 12:53:00
5:53 AM,50.0,46.0,86,29.86,10.0,NW,11.5,-,N/A,,Overcast,310,2013-10-29 13:53:00
6:31 AM,50.0,46.0,86,29.86,10.0,NW,6.9,-,N/A,,Overcast,320,2013-10-29 14:31:00
6:53 AM,50.0,46.0,86,29.86,10.0,WNW,6.9,-,N/A,,Overcast,300,2013-10-29 14:53:00
7:16 AM,50.0,46.0,86,29.86,8.0,NW,6.9,-,N/A,,Overcast,310,2013-10-29 15:16:00
7:26 AM,50.0,46.0,86,29.85,3.0,NW,6.9,-,0.01,Rain,Light Rain,320,2013-10-29 15:26:00
7:53 AM,50.0,46.0,86,29.86,6.0,NNW,6.9,-,0.01,,Overcast,340,2013-10-29 15:53:00
8:00 AM,48.9,46.0,90,29.85,6.0,NNW,5.8,-,N/A,,Overcast,340,2013-10-29 16:00:00
8:49 AM,48.2,46.4,93,29.86,7.0,NNW,3.5,-,0.01,Rain,Light Rain,340,2013-10-29 16:49:00
8:53 AM,48.9,46.0,90,29.86,7.0,North,3.5,-,0.01,Rain,Light Rain,350,2013-10-29 16:53:00
9:15 AM,48.9,46.0,90,29.86,8.0,NW,3.5,-,0.00,Rain,Light Rain,310,2013-10-29 17:15:00
9:24 AM,48.9,45.0,86,29.86,9.0,WNW,3.5,-,0.00,,Overcast,290,2013-10-29 17:24:00
9:31 AM,50.0,45.0,83,29.86,9.0,NW,3.5,-,0.00,,Overcast,320,2013-10-29 17:31:00
9:39 AM,50.0,46.0,86,29.86,9.0,North,4.6,-,0.00,,Overcast,360,2013-10-29 17:39:00
9:53 AM,48.9,45.0,86,29.87,8.0,North,5.8,-,0.00,Rain,Light Rain,350,2013-10-29 17:53:00
10:23 AM,48.9,45.0,86,29.87,10.0,North,5.8,-,0.00,,Mostly Cloudy,360,2013-10-29 18:23:00
10:39 AM,48.9,45.0,86,29.88,10.0,Variable,3.5,-,0.00,,Mostly Cloudy,0,2013-10-29 18:39:00
10:53 AM,50.0,45.0,83,29.88,10.0,Calm,Calm,-,0.00,,Mostly Cloudy,0,2013-10-29 18:53:00
11:34 AM,50.0,44.1,80,29.89,10.0,South,3.5,-,N/A,,Overcast,190,2013-10-29 19:34:00
11:53 AM,50.0,45.0,83,29.89,10.0,ESE,4.6,-,N/A,,Overcast,110,2013-10-29 19:53:00
12:00 PM,50.0,45.0,83,29.89,10.0,East,3.5,-,N/A,,Overcast,100,2013-10-29 20:00:00
12:11 PM,50.0,45.0,83,29.89,10.0,East,5.8,-,N/A,,Overcast,80,2013-10-29 20:11:00
12:18 PM,50.0,45.0,83,29.89,10.0,East,4.6,-,N/A,,Overcast,90,2013-10-29 20:18:00
12:53 PM,51.1,44.1,77,29.88,10.0,Variable,3.5,-,N/A,,Overcast,0,2013-10-29 20:53:00
1:53 PM,52.0,43.0,71,29.88,10.0,Calm,Calm,-,N/A,,Mostly Cloudy,0,2013-10-29 21:53:00
2:53 PM,51.1,44.1,77,29.87,10.0,SE,4.6,-,0.00,Rain,Light Rain,140,2013-10-29 22:53:00
3:53 PM,50.0,45.0,83,29.86,10.0,South,4.6,-,0.01,,Overcast,180,2013-10-29 23:53:00
4:53 PM,50.0,44.1,80,29.85,10.0,Variable,4.6,-,N/A,,Overcast,0,2013-10-30 00:53:00
5:53 PM,48.9,45.0,86,29.84,10.0,East,3.5,-,N/A,,Overcast,100,2013-10-30 01:53:00
6:53 PM,48.9,44.1,83,29.83,10.0,SE,6.9,-,N/A,,Overcast,130,2013-10-30 02:53:00
7:53 PM,48.9,44.1,83,29.82,10.0,ESE,4.6,-,N/A,,Overcast,120,2013-10-30 03:53:00
8:53 PM,48.0,43.0,83,29.82,10.0,East,4.6,-,0.00,,Overcast,90,2013-10-30 04:53:00
9:53 PM,48.0,43.0,83,29.81,10.0,East,4.6,-,0.00,Rain,Light Rain,90,2013-10-30 05:53:00
10:53 PM,48.9,43.0,80,29.80,10.0,SE,8.1,-,0.00,,Overcast,140,2013-10-30 06:53:00
11:53 PM,48.0,43.0,83,29.78,10.0,East,6.9,-,0.00,Rain,Light Rain,90,2013-10-30 07:53:00